Time,TemperatureF,DewpointF,PressureIn,WindDirection,WindDirectionDegrees,WindSpeedMPH,WindSpeedGustMPH,Humidity,HourlyPrecipIn,Conditions,Clouds,dailyrainin,SoftwareType,DateUTC
2013-07-20 00:02:00,74.0,72.0,30.15,WSW,238,0.0,0.0,92,0.00,,,0.00,,2013-07-20 04:02:00,
2013-07-20 00:44:00,74.0,72.0,30.15,WSW,238,0.0,0.0,93,0.00,,,0.00,,2013-07-20 04:44:00,
2013-07-20 00:52:00,74.0,72.0,30.15,WSW,238,0.0,0.0,93,0.00,,,0.00,,2013-07-20 04:52:00,
2013-07-20 01:12:00,74.0,72.0,30.14,SSW,202,0.0,1.0,94,0.00,,,0.00,,2013-07-20 05:12:00,
2013-07-20 01:22:00,74.0,72.0,30.14,SSW,205,0.0,1.0,93,0.00,,,0.00,,2013-07-20 05:22:00,
2013-07-20 01:32:00,75.0,73.0,30.13,SSW,209,0.0,2.0,93,0.00,,,0.00,,2013-07-20 05:32:00,
2013-07-20 01:52:00,75.0,73.0,30.13,WSW,237,0.0,3.0,92,0.00,,,0.00,,2013-07-20 05:52:00,
2013-07-20 02:21:00,75.0,73.0,30.12,SW,229,0.0,2.0,92,0.00,,,0.00,,2013-07-20 06:21:00,
2013-07-20 02:32:00,75.0,73.0,30.13,SW,234,0.0,3.0,92,0.00,,,0.00,,2013-07-20 06:32:00,
2013-07-20 02:43:00,75.0,73.0,30.13,SW,234,0.0,2.0,92,0.00,,,0.00,,2013-07-20 06:43:00,
2013-07-20 02:52:00,75.0,73.0,30.13,SW,233,0.0,1.0,92,0.00,,,0.00,,2013-07-20 06:52:00,
2013-07-20 03:01:00,75.0,73.0,30.13,South,184,0.0,2.0,92,0.00,,,0.00,,2013-07-20 07:01:00,
2013-07-20 03:12:00,75.0,73.0,30.13,South,183,0.0,2.0,92,0.00,,,0.00,,2013-07-20 07:12:00,
2013-07-20 03:22:00,75.0,73.0,30.12,SSW,198,0.0,2.0,92,0.00,,,0.00,,2013-07-20 07:22:00,
2013-07-20 03:33:00,75.0,73.0,30.12,SSW,198,0.0,0.0,92,0.00,,,0.00,,2013-07-20 07:33:00,
2013-07-20 03:44:00,74.0,72.0,30.13,SSW,198,0.0,0.0,93,0.00,,,0.00,,2013-07-20 07:44:00,
2013-07-20 03:53:00,74.0,72.0,30.13,SSW,198,0.0,1.0,93,0.00,,,0.00,,2013-07-20 07:53:00,
2013-07-20 04:02:00,74.0,72.0,30.12,SSW,198,0.0,0.0,93,0.00,,,0.00,,2013-07-20 08:02:00,
2013-07-20 04:11:00,74.0,72.0,30.13,SSW,198,0.0,0.0,93,0.00,,,0.00,,2013-07-20 08:11:00,
2013-07-20 04:22:00,74.0,72.0,30.13,SSW,198,0.0,0.0,93,0.00,,,0.00,,2013-07-20 08:22:00,
2013-07-20 04:32:00,74.0,72.0,30.12,SSW,198,0.0,0.0,93,0.00,,,0.00,,2013-07-20 08:32:00,
2013-07-20 04:44:00,74.0,72.0,30.12,SSW,198,0.0,0.0,94,0.00,,,0.00,,2013-07-20 08:44:00,
2013-07-20 04:52:00,74.0,72.0,30.12,SSW,198,0.0,0.0,94,0.00,,,0.00,,2013-07-20 08:52:00,
2013-07-20 05:02:00,73.0,71.0,30.12,SSW,198,0.0,1.0,94,0.00,,,0.00,,2013-07-20 09:02:00,
2013-07-20 05:11:00,73.0,71.0,30.12,SSW,198,0.0,1.0,94,0.00,,,0.00,,2013-07-20 09:11:00,
2013-07-20 05:22:00,73.0,71.0,30.12,SSW,198,0.0,1.0,94,0.00,,,0.00,,2013-07-20 09:22:00,
2013-07-20 05:43:00,73.0,71.0,30.12,SSW,198,0.0,0.0,94,0.00,,,0.00,,2013-07-20 09:43:00,
2013-07-20 05:53:00,73.0,71.0,30.12,SSW,198,0.0,0.0,94,0.00,,,0.00,,2013-07-20 09:53:00,
2013-07-20 06:01:00,73.0,71.0,30.12,SSW,198,0.0,0.0,94,0.00,,,0.00,,2013-07-20 10:01:00,
2013-07-20 06:11:00,73.0,71.0,30.12,SSW,198,0.0,0.0,95,0.00,,,0.00,,2013-07-20 10:11:00,
2013-07-20 06:22:00,73.0,71.0,30.12,SSW,198,0.0,1.0,95,0.00,,,0.00,,2013-07-20 10:22:00,
2013-07-20 06:32:00,73.0,71.0,30.12,South,173,0.0,1.0,95,0.00,,,0.00,,2013-07-20 10:32:00,
2013-07-20 06:42:00,73.0,71.0,30.12,SSE,159,0.0,1.0,95,0.00,,,0.00,,2013-07-20 10:42:00,
2013-07-20 06:52:00,73.0,71.0,30.12,South,175,0.0,1.0,95,0.00,,,0.00,,2013-07-20 10:52:00,
2013-07-20 07:02:00,73.0,71.0,30.12,South,175,0.0,0.0,95,0.00,,,0.00,,2013-07-20 11:02:00,
2013-07-20 07:11:00,73.0,71.0,30.12,South,185,0.0,2.0,95,0.00,,,0.00,,2013-07-20 11:11:00,
2013-07-20 07:43:00,73.0,71.0,30.13,SE,130,0.0,0.0,95,0.00,,,0.00,,2013-07-20 11:43:00,
2013-07-20 07:52:00,74.0,72.0,30.13,SE,130,0.0,1.0,95,0.00,,,0.00,,2013-07-20 11:52:00,
2013-07-20 08:52:00,75.0,73.0,30.14,South,184,0.0,1.0,94,0.00,,,0.00,,2013-07-20 12:52:00,
2013-07-20 09:22:00,76.0,74.0,30.14,SSW,204,0.0,3.0,93,0.00,,,0.00,,2013-07-20 13:22:00,
2013-07-20 09:43:00,76.0,74.0,30.15,East,94,0.0,2.0,92,0.00,,,0.00,,2013-07-20 13:43:00,
2013-07-20 09:53:00,76.0,74.0,30.14,West,265,0.0,3.0,92,0.00,,,0.00,,2013-07-20 13:53:00,
2013-07-20 10:11:00,77.0,74.0,30.14,SW,214,1.0,3.0,90,0.00,,,0.00,,2013-07-20 14:11:00,
2013-07-20 10:22:00,77.0,74.0,30.15,WSW,244,0.0,3.0,90,0.00,,,0.00,,2013-07-20 14:22:00,
2013-07-20 10:32:00,78.0,75.0,30.15,WSW,240,0.0,2.0,90,0.00,,,0.00,,2013-07-20 14:32:00,
2013-07-20 10:43:00,78.0,74.0,30.15,WSW,240,0.0,2.0,89,0.00,,,0.00,,2013-07-20 14:43:00,
2013-07-20 10:53:00,78.0,74.0,30.15,WSW,257,0.0,1.0,89,0.00,,,0.00,,2013-07-20 14:53:00,
2013-07-20 11:01:00,78.0,74.0,30.15,SW,219,0.0,3.0,88,0.00,,,0.00,,2013-07-20 15:01:00,
2013-07-20 11:11:00,79.0,75.0,30.15,SW,219,0.0,2.0,87,0.00,,,0.00,,2013-07-20 15:11:00,
2013-07-20 11:22:00,79.0,75.0,30.15,SE,137,0.0,1.0,87,0.00,,,0.00,,2013-07-20 15:22:00,
2013-07-20 11:33:00,79.0,75.0,30.15,SW,225,0.0,3.0,87,0.00,,,0.00,,2013-07-20 15:33:00,
2013-07-20 11:44:00,79.0,75.0,30.15,SW,225,0.0,2.0,87,0.00,,,0.00,,2013-07-20 15:44:00,
2013-07-20 11:53:00,79.0,75.0,30.15,SE,140,0.0,2.0,87,0.00,,,0.00,,2013-07-20 15:53:00,
2013-07-20 12:01:00,79.0,74.0,30.15,SSE,165,0.0,3.0,86,0.00,,,0.00,,2013-07-20 16:01:00,
2013-07-20 12:11:00,80.0,75.0,30.15,SE,132,0.0,2.0,85,0.00,,,0.00,,2013-07-20 16:11:00,
2013-07-20 12:22:00,80.0,75.0,30.14,SSW,202,0.0,2.0,85,0.00,,,0.00,,2013-07-20 16:22:00,
2013-07-20 12:32:00,81.0,76.0,30.14,WSW,240,1.0,4.0,84,0.00,,,0.00,,2013-07-20 16:32:00,
2013-07-20 12:43:00,81.0,76.0,30.13,SW,219,1.0,4.0,84,0.00,,,0.00,,2013-07-20 16:43:00,
2013-07-20 12:52:00,81.0,75.0,30.13,WSW,245,1.0,5.0,83,0.00,,,0.00,,2013-07-20 16:52:00,
2013-07-20 13:02:00,81.0,75.0,30.13,West,259,1.0,3.0,83,0.00,,,0.00,,2013-07-20 17:02:00,
2013-07-20 13:11:00,81.0,75.0,30.13,WSW,254,1.0,4.0,83,0.00,,,0.00,,2013-07-20 17:11:00,
2013-07-20 13:22:00,82.0,76.0,30.13,SW,225,1.0,3.0,82,0.00,,,0.00,,2013-07-20 17:22:00,
2013-07-20 13:32:00,82.0,76.0,30.12,SW,233,1.0,4.0,82,0.00,,,0.00,,2013-07-20 17:32:00,
2013-07-20 13:43:00,82.0,76.0,30.12,NNW,340,2.0,4.0,81,0.00,,,0.00,,2013-07-20 17:43:00,
2013-07-20 13:53:00,82.0,76.0,30.11,WSW,244,1.0,7.0,81,0.00,,,0.00,,2013-07-20 17:53:00,
2013-07-20 14:01:00,83.0,77.0,30.11,SW,223,2.0,4.0,81,0.00,,,0.00,,2013-07-20 18:01:00,
2013-07-20 14:12:00,83.0,75.0,30.10,East,84,0.0,5.0,78,0.00,,,0.00,,2013-07-20 18:12:00,
2013-07-20 14:24:00,84.0,76.0,30.10,WSW,244,1.0,5.0,77,0.00,,,0.00,,2013-07-20 18:24:00,
2013-07-20 14:36:00,83.0,76.0,30.10,SSW,194,0.0,4.0,79,0.00,,,0.00,,2013-07-20 18:36:00,
2013-07-20 14:55:00,84.0,77.0,30.09,East,100,0.0,5.0,79,0.00,,,0.00,,2013-07-20 18:55:00,
2013-07-20 15:15:00,84.0,75.0,30.09,SW,222,0.0,4.0,75,0.00,,,0.00,,2013-07-20 19:15:00,
2013-07-20 15:26:00,84.0,75.0,30.09,SW,235,0.0,4.0,75,0.00,,,0.00,,2013-07-20 19:26:00,
2013-07-20 15:35:00,85.0,77.0,30.08,East,98,0.0,2.0,76,0.00,,,0.00,,2013-07-20 19:35:00,
2013-07-20 15:43:00,85.0,77.0,30.08,SW,236,0.0,3.0,76,0.00,,,0.00,,2013-07-20 19:43:00,
2013-07-20 15:54:00,86.0,77.0,30.08,SE,134,0.0,2.0,74,0.00,,,0.00,,2013-07-20 19:54:00,
2013-07-20 16:06:00,86.0,76.0,30.08,SE,142,0.0,3.0,73,0.00,,,0.00,,2013-07-20 20:06:00,
2013-07-20 16:15:00,85.0,77.0,30.07,SE,142,0.0,4.0,76,0.00,,,0.00,,2013-07-20 20:15:00,
2013-07-20 16:24:00,85.0,76.0,30.08,SW,230,1.0,5.0,75,0.00,,,0.00,,2013-07-20 20:24:00,
2013-07-20 16:33:00,86.0,77.0,30.08,NNE,19,0.0,2.0,74,0.00,,,0.00,,2013-07-20 20:33:00,
2013-07-20 16:45:00,85.0,77.0,30.07,SW,236,0.0,3.0,76,0.00,,,0.00,,2013-07-20 20:45:00,
2013-07-20 16:56:00,83.0,75.0,30.07,West,275,0.0,4.0,78,0.00,,,0.00,,2013-07-20 20:56:00,
2013-07-20 17:05:00,83.0,76.0,30.06,West,273,0.0,1.0,80,0.00,,,0.00,,2013-07-20 21:05:00,
2013-07-20 17:15:00,82.0,75.0,30.09,NE,53,0.0,2.0,79,0.03,,,0.03,,2013-07-20 21:15:00,
2013-07-20 17:27:00,79.0,73.0,30.09,NE,54,0.0,3.0,82,0.05,,,0.05,,2013-07-20 21:27:00,
2013-07-20 17:34:00,77.0,73.0,30.08,SW,230,0.0,2.0,87,0.19,,,0.19,,2013-07-20 21:34:00,
2013-07-20 17:45:00,76.0,73.0,30.08,SW,230,0.0,1.0,89,0.24,,,0.24,,2013-07-20 21:45:00,
2013-07-20 17:55:00,76.0,73.0,30.07,SW,229,0.0,2.0,91,0.45,,,0.45,,2013-07-20 21:55:00,
2013-07-20 18:06:00,76.0,73.0,30.06,SW,229,0.0,0.0,91,0.56,,,0.56,,2013-07-20 22:06:00,
2013-07-20 18:16:00,75.0,73.0,30.06,SW,229,0.0,0.0,92,0.58,,,0.61,,2013-07-20 22:16:00,
2013-07-20 18:25:00,76.0,74.0,30.05,SW,229,0.0,1.0,93,0.58,,,0.62,,2013-07-20 22:25:00,
2013-07-20 18:34:00,76.0,74.0,30.05,SW,229,0.0,0.0,93,0.44,,,0.62,,2013-07-20 22:34:00,
2013-07-20 18:47:00,76.0,74.0,30.05,SW,229,0.0,1.0,94,0.38,,,0.62,,2013-07-20 22:47:00,
2013-07-20 18:55:00,75.0,73.0,30.04,SW,229,0.0,0.0,94,0.17,,,0.62,,2013-07-20 22:55:00,
2013-07-20 19:05:00,75.0,73.0,30.04,SW,229,0.0,0.0,94,0.07,,,0.62,,2013-07-20 23:05:00,
2013-07-20 19:17:00,76.0,74.0,30.04,SW,229,0.0,0.0,94,0.01,,,0.62,,2013-07-20 23:17:00,
2013-07-20 19:28:00,76.0,74.0,30.05,SW,229,0.0,1.0,94,0.00,,,0.62,,2013-07-20 23:28:00,
2013-07-20 19:36:00,75.0,73.0,30.05,SW,229,0.0,1.0,94,0.00,,,0.62,,2013-07-20 23:36:00,
2013-07-20 19:44:00,75.0,73.0,30.06,SW,229,0.0,0.0,94,0.00,,,0.62,,2013-07-20 23:44:00,
2013-07-20 19:55:00,75.0,73.0,30.06,SW,229,0.0,0.0,94,0.00,,,0.62,,2013-07-20 23:55:00,
2013-07-20 20:07:00,74.0,72.0,30.07,SW,229,0.0,2.0,94,0.00,,,0.62,,2013-07-21 00:07:00,
2013-07-20 20:24:00,74.0,72.0,30.08,SW,229,0.0,0.0,94,0.00,,,0.62,,2013-07-21 00:24:00,
2013-07-20 20:44:00,74.0,72.0,30.09,SW,229,0.0,0.0,95,0.00,,,0.62,,2013-07-21 00:44:00,
2013-07-20 20:55:00,73.0,71.0,30.09,SW,229,0.0,0.0,95,0.00,,,0.62,,2013-07-21 00:55:00,
2013-07-20 21:06:00,73.0,71.0,30.10,SW,229,0.0,1.0,95,0.00,,,0.62,,2013-07-21 01:06:00,
2013-07-20 21:12:00,73.0,71.0,30.10,SW,229,0.0,0.0,95,0.00,,,0.62,,2013-07-21 01:12:00,
2013-07-20 21:27:00,73.0,71.0,30.10,SW,229,0.0,0.0,95,0.00,,,0.62,,2013-07-21 01:27:00,
2013-07-20 21:36:00,73.0,71.0,30.10,SW,229,0.0,0.0,95,0.00,,,0.62,,2013-07-21 01:36:00,
2013-07-20 21:56:00,73.0,71.0,30.10,SW,229,0.0,0.0,95,0.00,,,0.62,,2013-07-21 01:56:00,
2013-07-20 22:06:00,73.0,71.0,30.10,SW,229,0.0,0.0,95,0.00,,,0.62,,2013-07-21 02:06:00,
2013-07-20 22:17:00,72.0,70.0,30.10,SW,229,0.0,0.0,95,0.00,,,0.62,,2013-07-21 02:17:00,
2013-07-20 22:27:00,72.0,70.0,30.11,SW,229,0.0,0.0,95,0.00,,,0.62,,2013-07-21 02:27:00,
2013-07-20 22:36:00,72.0,70.0,30.11,SW,229,0.0,0.0,95,0.00,,,0.62,,2013-07-21 02:36:00,
2013-07-20 22:44:00,72.0,70.0,30.12,SW,229,0.0,0.0,95,0.00,,,0.62,,2013-07-21 02:44:00,
2013-07-20 23:05:00,71.0,69.0,30.12,SW,229,0.0,0.0,95,0.00,,,0.62,,2013-07-21 03:05:00,
2013-07-20 23:14:00,71.0,69.0,30.12,SW,229,0.0,0.0,95,0.00,,,0.62,,2013-07-21 03:14:00,
2013-07-20 23:36:00,71.0,69.0,30.12,SW,229,0.0,0.0,95,0.00,,,0.62,,2013-07-21 03:36:00,
2013-07-20 23:56:00,71.0,70.0,30.12,SW,229,0.0,0.0,96,0.00,,,0.62,,2013-07-21 03:56:00,